When you browse on this site, cookies collect data to enhance your experience and personalize the content and advertising you see.
Visit our Privacy Policy to learn more. By continuing to use the site, you agree to this use of cookies and data.
  • In Portugal
  • List of Countries
  • For 7 days
  • Water Temperature
  • Satellite Maps
  • Weather Map
  • Weather Widgets
  • user-avatar
    Login

    Hourly Weather Tyuy

    Today, 26 April, Friday

    Time Temperature Precipitation Wind Pressure Humidity
    00:00 +1°C° 0 mm 1 mps 746 mmHg 83%
    01:00 +1°C° 0 mm 1 mps 746 mmHg 85%
    02:00 +1°C° 0 mm 1 mps 746 mmHg 86%
    03:00 0°C° 0 mm 1 mps 746 mmHg 86%
    04:00 -1°C° 0 mm 1 mps 746 mmHg 89%
    05:00 +1°C° 0 mm 1 mps 746 mmHg 83%
    06:00 +2°C° 0 mm 1 mps 746 mmHg 77%
    07:00 +3°C° 0 mm 1 mps 746 mmHg 71%
    08:00 +4°C° 0 mm 1 mps 745 mmHg 63%
    09:00 +5°C° 0 mm 2 mps 745 mmHg 54%
    10:00 +6°C° 0 mm 2 mps 745 mmHg 46%
    11:00 +7°C° 0.1 mm 3 mps 745 mmHg 46%
    12:00 +8°C° 0.1 mm 3 mps 744 mmHg 46%
    13:00 +7°C° 0.1 mm 4 mps 744 mmHg 46%
    14:00 +7°C° 0.3 mm 4 mps 744 mmHg 51%
    15:00 +7°C° 0.3 mm 4 mps 744 mmHg 55%
    16:00 +6°C° 0.3 mm 4 mps 743 mmHg 59%
    17:00 +6°C° 0.2 mm 4 mps 743 mmHg 62%
    18:00 +5°C° 0.2 mm 3 mps 743 mmHg 64%
    19:00 +5°C° 0.2 mm 3 mps 743 mmHg 67%
    20:00 +3°C° 0 mm 3 mps 743 mmHg 70%
    21:00 +3°C° 0 mm 2 mps 744 mmHg 73%
    22:00 +2°C° 0 mm 2 mps 744 mmHg 77%
    23:00 +1°C° 0 mm 2 mps 744 mmHg 79%

    Tomorrow, 27 April, Saturday

    Time Temperature Precipitation Wind Pressure Humidity
    00:00 -1°C° 0 mm 2 mps 744 mmHg 81%
    01:00 +1°C° 0 mm 1 mps 744 mmHg 84%
    02:00 0°C° 0 mm 1 mps 744 mmHg 84%
    03:00 0°C° 0 mm 1 mps 745 mmHg 84%
    04:00 0°C° 0 mm 1 mps 745 mmHg 84%
    05:00 +1°C° 0 mm 1 mps 745 mmHg 79%
    06:00 +2°C° 0 mm 1 mps 745 mmHg 74%
    07:00 +3°C° 0 mm 1 mps 745 mmHg 69%
    08:00 +3°C° 0 mm 2 mps 744 mmHg 65%
    09:00 +3°C° 0 mm 3 mps 744 mmHg 60%
    10:00 +4°C° 0 mm 4 mps 743 mmHg 55%
    11:00 +6°C° 0 mm 5 mps 742 mmHg 54%
    12:00 +7°C° 0 mm 6 mps 742 mmHg 52%
    13:00 +9°C° 0 mm 7 mps 741 mmHg 50%
    14:00 +9°C° 0 mm 7 mps 740 mmHg 48%
    15:00 +10°C° 0 mm 7 mps 739 mmHg 45%
    16:00 +11°C° 0 mm 7 mps 739 mmHg 43%
    17:00 +10°C° 0 mm 6 mps 738 mmHg 47%
    18:00 +10°C° 0 mm 5 mps 737 mmHg 52%
    19:00 +10°C° 0 mm 4 mps 737 mmHg 56%
    20:00 +8°C° 0 mm 4 mps 737 mmHg 59%
    21:00 +8°C° 0 mm 4 mps 736 mmHg 61%
    22:00 +7°C° 0 mm 4 mps 736 mmHg 64%
    23:00 +7°C° 0 mm 4 mps 736 mmHg 66%

    Day after tomorrow, 28 April, Sunday

    Time Temperature Precipitation Wind Pressure Humidity
    00:00 +7°C° 0 mm 4 mps 735 mmHg 68%
    01:00 +8°C° 0 mm 3 mps 735 mmHg 70%
    02:00 +7°C° 0.5 mm 3 mps 734 mmHg 76%
    03:00 +6°C° 0.5 mm 2 mps 734 mmHg 83%
    04:00 +7°C° 0.5 mm 1 mps 734 mmHg 89%
    05:00 +4°C° 1.8 mm 2 mps 733 mmHg 91%
    06:00 +2°C° 1.8 mm 3 mps 733 mmHg 92%
    07:00 0°C° 1.8 mm 4 mps 733 mmHg 93%
    08:00 0°C° 1.6 mm 4 mps 733 mmHg 93%
    09:00 -1°C° 1.6 mm 4 mps 733 mmHg 92%
    10:00 -1°C° 1.6 mm 4 mps 734 mmHg 92%
    11:00 0°C° 0.2 mm 4 mps 734 mmHg 91%
    12:00 0°C° 0.2 mm 4 mps 735 mmHg 89%
    13:00 +1°C° 0.2 mm 4 mps 735 mmHg 87%
    14:00 +1°C° 0.1 mm 4 mps 736 mmHg 84%
    15:00 +2°C° 0.1 mm 5 mps 736 mmHg 81%
    16:00 +2°C° 0.1 mm 5 mps 737 mmHg 78%
    17:00 +1°C° 0.1 mm 4 mps 738 mmHg 79%
    18:00 +1°C° 0.1 mm 4 mps 738 mmHg 80%
    19:00 +1°C° 0.1 mm 3 mps 738 mmHg 81%
    20:00 0°C° 0 mm 3 mps 739 mmHg 83%
    21:00 -1°C° 0 mm 3 mps 739 mmHg 85%
    22:00 -2°C° 0 mm 3 mps 740 mmHg 88%
    23:00 -2°C° 0 mm 3 mps 740 mmHg 88%

    29 April, Monday

    Time Temperature Precipitation Wind Pressure Humidity
    00:00 -4°C° 0 mm 3 mps 741 mmHg 89%
    01:00 -5°C° 0 mm 3 mps 741 mmHg 90%
    02:00 -5°C° 0 mm 3 mps 741 mmHg 91%
    03:00 -5°C° 0 mm 3 mps 742 mmHg 91%
    04:00 -5°C° 0 mm 2 mps 742 mmHg 92%
    05:00 -5°C° 0 mm 3 mps 742 mmHg 89%
    06:00 -4°C° 0 mm 3 mps 742 mmHg 86%
    07:00 -2°C° 0 mm 3 mps 743 mmHg 83%
    08:00 -1°C° 0 mm 3 mps 743 mmHg 76%
    09:00 0°C° 0 mm 3 mps 743 mmHg 70%
    10:00 +1°C° 0 mm 3 mps 744 mmHg 64%
    11:00 0°C° 0.2 mm 4 mps 744 mmHg 60%
    12:00 +1°C° 0.2 mm 4 mps 744 mmHg 57%
    13:00 +1°C° 0.2 mm 4 mps 744 mmHg 53%
    14:00 +1°C° 0.1 mm 4 mps 744 mmHg 53%
    15:00 +1°C° 0.1 mm 4 mps 744 mmHg 53%
    16:00 +1°C° 0.1 mm 4 mps 744 mmHg 53%
    17:00 +1°C° 0 mm 3 mps 745 mmHg 57%
    18:00 0°C° 0 mm 3 mps 745 mmHg 62%
    19:00 +1°C° 0 mm 2 mps 745 mmHg 67%
    20:00 -2°C° 0 mm 2 mps 745 mmHg 71%
    21:00 -3°C° 0 mm 2 mps 745 mmHg 76%
    22:00 -4°C° 0 mm 2 mps 746 mmHg 81%
    23:00 -4°C° 0 mm 2 mps 746 mmHg 81%

    30 April, Tuesday

    Time Temperature Precipitation Wind Pressure Humidity
    00:00 -5°C° 0 mm 2 mps 746 mmHg 82%
    01:00 -5°C° 0 mm 2 mps 746 mmHg 83%
    02:00 -5°C° 0 mm 2 mps 746 mmHg 83%
    03:00 -5°C° 0 mm 2 mps 746 mmHg 83%
    04:00 -3°C° 0 mm 1 mps 746 mmHg 84%
    05:00 -4°C° 0 mm 2 mps 746 mmHg 79%
    06:00 -4°C° 0 mm 2 mps 746 mmHg 74%
    07:00 -3°C° 0 mm 2 mps 746 mmHg 69%
    08:00 -2°C° 0 mm 2 mps 746 mmHg 62%
    09:00 -1°C° 0 mm 2 mps 746 mmHg 56%
    10:00 0°C° 0 mm 3 mps 746 mmHg 50%
    11:00 +1°C° 0 mm 3 mps 746 mmHg 49%
    12:00 +1°C° 0 mm 3 mps 745 mmHg 49%
    13:00 0°C° 0 mm 4 mps 745 mmHg 49%
    14:00 +1°C° 0 mm 4 mps 745 mmHg 49%
    15:00 +1°C° 0 mm 4 mps 745 mmHg 49%
    16:00 +1°C° 0 mm 4 mps 745 mmHg 50%
    17:00 +1°C° 0 mm 3 mps 745 mmHg 53%
    18:00 +1°C° 0 mm 3 mps 744 mmHg 57%
    19:00 +2°C° 0 mm 2 mps 744 mmHg 60%
    20:00 +1°C° 0 mm 2 mps 744 mmHg 64%
    21:00 -1°C° 0 mm 2 mps 744 mmHg 68%
    22:00 -4°C° 0 mm 3 mps 744 mmHg 72%
    23:00 -2°C° 0 mm 3 mps 744 mmHg 71%

    1 May, Wednesday

    Time Temperature Precipitation Wind Pressure Humidity
    00:00 -2°C° 0 mm 3 mps 743 mmHg 69%
    01:00 -2°C° 0 mm 3 mps 743 mmHg 68%
    02:00 -3°C° 0 mm 4 mps 743 mmHg 67%
    03:00 -3°C° 0 mm 4 mps 743 mmHg 66%
    04:00 -2°C° 0 mm 5 mps 743 mmHg 65%
    05:00 -2°C° 0 mm 5 mps 743 mmHg 65%
    06:00 -1°C° 0 mm 4 mps 742 mmHg 65%
    07:00 -1°C° 0 mm 4 mps 742 mmHg 65%
    08:00 0°C° 0 mm 4 mps 743 mmHg 64%
    09:00 +3°C° 0 mm 4 mps 743 mmHg 62%
    10:00 +4°C° 0 mm 4 mps 743 mmHg 60%
    11:00 +5°C° 0.1 mm 5 mps 743 mmHg 57%
    12:00 +5°C° 0.1 mm 5 mps 743 mmHg 55%
    13:00 +6°C° 0.1 mm 5 mps 743 mmHg 52%
    14:00 +6°C° 0.1 mm 4 mps 743 mmHg 53%
    15:00 +6°C° 0.1 mm 4 mps 743 mmHg 53%
    16:00 +6°C° 0.1 mm 4 mps 743 mmHg 54%
    17:00 +7°C° 0.1 mm 3 mps 743 mmHg 60%
    18:00 +6°C° 0.1 mm 2 mps 743 mmHg 66%
    19:00 +6°C° 0.1 mm 1 mps 743 mmHg 72%
    20:00 +5°C° 0 mm 1 mps 743 mmHg 76%
    21:00 +3°C° 0 mm 1 mps 743 mmHg 79%
    22:00 +2°C° 0 mm 1 mps 743 mmHg 82%
    23:00 +2°C° 0 mm 1 mps 743 mmHg 82%
    Show more